This is the latest recevied weather packets stored in our database for station/object KBTL-WX. If no packets are shown the sender has not sent any weather packets the latest 10 day(s).
| Time | Temp. | Humidity | Pressure | Rain* | Wind** | Luminosity | Snow |
|---|---|---|---|---|---|---|---|
| 1777235425 | 18.89° C | 46% | 985.1 hPa | 0 mm | - | - | - |
| 1777234514 | 18.89° C | 46% | 985.1 hPa | 0 mm | - | - | - |
| 1777233628 | 18.89° C | 46% | 985.1 hPa | 0 mm | - | - | - |
| 1777232714 | 18.89° C | 47% | 985.3 hPa | 0 mm | - | - | - |
| 1777231828 | 18.89° C | 47% | 985.3 hPa | 0 mm | - | - | - |
| 1777230915 | 18.89° C | 47% | 985.3 hPa | 0 mm | - | - | - |
| 1777230033 | 18.89° C | 47% | 985.3 hPa | 0 mm | - | - | - |
| 1777229115 | 18.33° C | 52% | 985.6 hPa | 0 mm | - | - | - |
| 1777228230 | 17.78° C | 50% | 986.3 hPa | 0 mm | - | - | - |
| 1777227314 | 17.22° C | 50% | 986.2 hPa | 0 mm | - | - | - |
| 1777226429 | 16.67° C | 50% | 986.2 hPa | 0 mm | - | - | - |
| 1777225514 | 16.67° C | 60% | 986.3 hPa | 0 mm | - | - | - |
| 1777224625 | 16.11° C | 60% | 986.7 hPa | 0 mm | - | - | - |
| 1777223712 | 15° C | 60% | 986.6 hPa | 0 mm | - | - | - |
| 1777222833 | 15° C | 60% | 986.6 hPa | 0 mm | - | - | - |
| 1777221913 | 13.89° C | 70% | 985.7 hPa | 0 mm | - | - | - |
| 1777221029 | 13.33° C | 76% | 986 hPa | 0 mm | - | - | - |
| 1777220115 | 12.22° C | 76% | 986 hPa | 0 mm | - | - | - |
| 1777219237 | 11.11° C | 76% | 986 hPa | 0 mm | - | - | - |
| 1777218315 | 11.11° C | 81% | 986.4 hPa | 0 mm | - | - | - |
| 1777217429 | 10.56° C | 86% | 986.2 hPa | 0 mm | - | - | - |
| 1777216514 | 10.56° C | 86% | 986.1 hPa | 0 mm | - | - | - |
| 1777215634 | 10° C | 86% | 986.1 hPa | 0 mm | - | - | - |
| 1777214714 | 10° C | 87% | 984.7 hPa | 0 mm | - | - | - |
| 1777213825 | 9.44° C | 86% | 985.9 hPa | 0 mm | - | - | - |
* Rain latest hour (hover to see other rain measurements)
** Current wind speed in m/s (hover to see current wind gust speed)